COSMOS 1275 DEB

Satellite information

Favourite Embed

Satellite Type and Status

DEBRISIN ORBIT

Key statistics

Satellite COSMOS 1275 DEB at a glance.

Uptime

16104

Days in orbit

Revolutions

≈ 13.7

Per day

Orbit

LEO

Low Earth Orbit

Inclination

82.8

Latest

Satellite identification and parameters

Extended collection of information and parameters for COSMOS 1275 DEB.

Object identification

Identified? True

Debris? True

Object name: COSMOS 1275 DEB

International designator: 1981-053DN

Object number (NORAD): 12769

Object ID (CCSDS): 12769

Country: COMMONWEALTH OF INDEPENDENT STATES (CIS)

Current information (Y/N): Y

RCS size: MEDIUM

Orbital parameters

Period: 104.824 minutes

Inclination: 82.8203 deg

SMA: 7364.347 km

Apoapsis: 1037.373 km

Periapsis: 935.051 km

RAAN: 43.7462 deg

Eccentricy: 0.0069471

Argument of periapsis: 250.0539 deg

Mean anomaly: 178.0091 deg

Mean motion: 13.7373007 rev/day

Mean motion (dot): 0.00000315 rev/day2

B* drag term: 0.00031632 1/REarth

Two-line elements (TLE)

Creation date: July 6, 2025, 6:05 p.m.

Reference frame: TEME

Reference center: EARTH

Epoch: July 6, 2025, 2:10 p.m. UTC

TLE line 0: 0 COSMOS 1275 DEB

TLE line 1: 1 12769U 81053DN 25187.59037419 .00000315 00000-0 31632-3 0 9990

TLE line 2: 2 12769 82.8203 43.7462 0069471 250.0539 178.0091 13.73730070194547

Live tracking on map

Real-time ground track for satellite COSMOS 1275 DEB.

In-orbit conjunctions

A list of the most updated potential collisions computed for object COSMOS 1275 DEB.

Target Orbit TCA Probability of collision Miss distance Type
CZ-6A DEB LEO 2025-01-28 16:51:43 0.0001201984 326.0 (m) DEBRIS
COSMOS 1275 DEB LEO 2024-11-14 03:30:47 0.0002159412 341.0 (m) DEBRIS
COSMOS 1275 DEB LEO 2024-08-18 20:53:40 0.0001344753 290.0 (m) DEBRIS

Associated space launch

Navigation satellite providing location information for the Tsiklon-B navigation system

COSMOS 1275 DEB was lifted into orbit during the mission ‘Kosmos-3M | Parus 27’, on board a Kosmos-3M space rocket.

The launch took place on June 4, 1981, 3:41 p.m. from 132/2.

For more information about the launch, click the button.

Launch to space Kosmos-3M | Parus 27
Kosmos-3M | Parus 27

Agency: N/A

Status: Launch Successful

Launch date: June 4, 1981, 3:41 p.m. UTC

Rocket: Kosmos-3M

Launch pad: 132/2

Location: Plesetsk Cosmodrome, Russian Federation

...

Latest news about this satellite

There are no fresh news available about this satellite. Check back as we update our databases every day.


Newsletter sign-up

Weekly statistics, charts and insights to help you stay on top of the space industry.